User: anonymous
Location: Unspecified
(0.0000°N, 0.0000°E)
Time: 15:02:37
(UTC+02:00)
Language:

ASC 2 Rocket - Orbit

View from above orbital plane
View from above orbital plane
View from above satellite
View from above satellite

Ground track
Ground track

The orbit data is extracted from the following two-line orbital elements,

1 21228U 91028B   14292.78166126  .00000379  00000-0  91380-4 0  4168
2 21228 023.9997 187.9298 1145483 244.0971 151.9977 12.52850979 75833
Epoch (UTC): 19 October 2014 18:45:35
Eccentricity: 0.1145483
inclination: 23.9997°
perigee height: 555 km
apogee height: 2349 km
right ascension of ascending node: 187.9298°
argument of perigee: 244.0971°
revolutions per day: 12.52850979
mean anomaly at epoch: 151.9977°
orbit number at epoch: 7583

The dashed part of the orbit path shows where the satellite is in the earth's shadow,  

DLR